Weather History for KPKD - June, 2014

Change the Weather History Date:

Tuesday, June 3, 2014

  Actual Average Record
Temperature  
Mean Temperature 63 °F -  
Max Temperature 75 °F 75 °F 89 °F (1986)
Min Temperature 51 °F 47 °F 31 °F (1964)
Degree Days  
Heating Degree Days 2    
Growing Degree Days 13 (Base 50)    
Moisture  
Dew Point 51 °F    
Average Humidity 71    
Maximum Humidity 97    
Minimum Humidity 39    
Precipitation  
Precipitation 0.00 in - - ()
Sea Level Pressure  
Sea Level Pressure 29.89 in    
Wind  
Wind Speed 10 mph (WNW)    
Max Wind Speed 16 mph    
Max Gust Speed 18 mph    
Visibility 10 miles    
Events      
Averages and records for this station are not official NWS values.
T = Trace of Precipitation, MM = Missing Value Source: NWS Daily Summary

Daily Weather History Graph

Daily Weather History Graph

Search for Another Location

Airport or City:

Trip Planner

Search our weather history database for the weather conditions in past years. The results will help you decide how hot, cold, wet, or windy it might be!

Date:

Astronomy

Jun. 03, 2014 Rise Set
Actual Time 5:28 AM CDT 9:08 PM CDT
Civil Twilight 4:49 AM CDT 9:47 PM CDT
Nautical Twilight 3:57 AM CDT 10:39 PM CDT
Astronomical Twilight 2:46 AM CDT 11:52 PM CDT
Moon 11:06 AM CDT (6/3) 12:24 AM CDT (6/3)
Length of Visible Light 16h 58m
Length of Day
15h 40m
Waxing Crescent, 30% of the Moon is Illuminated
Jun 3
Waxing Crescent
Jun 5
First Quarter
Jun 12
Full
Jun 19
Last Quarter
Jun 27
New

Hourly Weather History & Observations

Time (CDT) Temp. Dew Point Humidity Pressure Visibility Wind Dir Wind Speed Gust Speed Precip Events Conditions
12:53 AM 53.1 °F 51.1 °F 93% 29.87 in 10.0 mi West 12.7 mph - N/A   Clear
1:27 AM 53.1 °F 52.0 °F 96% 29.87 in 10.0 mi WNW 13.8 mph - N/A   Partly Cloudy
1:48 AM 53.6 °F 51.8 °F 94% 29.88 in 10.0 mi WNW 16.1 mph - N/A   Mostly Cloudy
1:53 AM 54.0 °F 52.0 °F 93% 29.88 in 10.0 mi WNW 13.8 mph - N/A   Scattered Clouds
2:53 AM 53.1 °F 52.0 °F 96% 29.88 in 10.0 mi West 8.1 mph - N/A   Clear
3:28 AM 53.1 °F 52.0 °F 96% 29.88 in 10.0 mi WNW 11.5 mph - N/A   Partly Cloudy
3:53 AM 53.1 °F 52.0 °F 96% 29.89 in 9.0 mi West 6.9 mph - N/A   Partly Cloudy
4:53 AM 52.0 °F 51.1 °F 97% 29.90 in 10.0 mi West 9.2 mph - N/A   Clear
5:53 AM 51.1 °F 50.0 °F 96% 29.91 in 10.0 mi West 6.9 mph - N/A   Clear
6:53 AM 54.0 °F 52.0 °F 93% 29.91 in 10.0 mi West 5.8 mph - N/A   Clear
7:53 AM 57.9 °F 53.1 °F 84% 29.91 in 10.0 mi WNW 9.2 mph - N/A   Clear
8:53 AM 62.1 °F 54.0 °F 75% 29.93 in 10.0 mi NW 10.4 mph - N/A   Clear
9:53 AM 64.9 °F 53.1 °F 65% 29.93 in 10.0 mi WNW 11.5 mph - N/A   Clear
10:53 AM 68.0 °F 52.0 °F 56% 29.92 in 10.0 mi WNW 12.7 mph - N/A   Partly Cloudy
11:53 AM 70.0 °F 52.0 °F 53% 29.93 in 10.0 mi WNW 13.8 mph - N/A   Mostly Cloudy
12:53 PM 69.1 °F 51.1 °F 53% 29.91 in 8.0 mi WNW 8.1 mph - N/A   Mostly Cloudy
1:53 PM 72.0 °F 51.1 °F 48% 29.90 in 10.0 mi West 11.5 mph 18.4 mph N/A   Scattered Clouds
2:53 PM 71.1 °F 51.1 °F 49% 29.90 in 10.0 mi WSW 10.4 mph - N/A   Scattered Clouds
3:53 PM 73.0 °F 48.9 °F 42% 29.88 in 10.0 mi WNW 8.1 mph - N/A   Partly Cloudy
4:53 PM 75.0 °F 48.9 °F 40% 29.87 in 10.0 mi WNW 8.1 mph - N/A   Scattered Clouds
5:53 PM 73.9 °F 48.9 °F 41% 29.86 in 10.0 mi West 9.2 mph - N/A   Clear
6:53 PM 73.0 °F 46.9 °F 39% 29.85 in 10.0 mi WNW 8.1 mph - N/A   Clear
7:53 PM 71.1 °F 50.0 °F 47% 29.83 in 10.0 mi NW 6.9 mph - N/A   Clear
8:53 PM 66.9 °F 51.1 °F 57% 29.82 in 10.0 mi NNW 4.6 mph - N/A   Clear
9:53 PM 64.4 °F 51.8 °F 64% 29.86 in 10.0 mi Calm Calm - N/A   Clear
10:53 PM 60.1 °F 53.1 °F 78% 29.88 in 10.0 mi Calm Calm - N/A   Partly Cloudy
11:53 PM 60.8 °F 53.6 °F 77% 29.87 in 10.0 mi NNE 3.5 mph - N/A   Overcast